Voltar ao catálogo

STARLINK-31371

AtivoComunicaçõesVLEO
NORAD 58940·PAYLOAD·🇺🇸 United States

Lançado Feb 10, 2024 de Vandenberg Space Force Base

Loading…

Próximas Passagens (próximas 24 horas)

TLE

AtualizadoSource: CelesTrak SupGP

Época: Sep 14, 2026, 22:43 UTC

1 58940C 24027K   26257.94701389 -.00041627  00000+0 -12299-2 0  2577
2 58940  53.1586 149.9346 0001336  80.8470 259.5863 15.34411219    12

Acompanhe STARLINK-31371 em tempo real com AllMySat

Download on the App Store